Home   Weather   Hefei   Past weeks

Flag for China Past Weather in Hefei, Anhui, China — Yesterday and Last 2 Weeks

Now
93 °F

Clear.


Feels Like: 101 °F
Forecast: 82 / 105 °F
Wind: 6 mph from South

Location: Hefei Airport

Current Time: Jul 23, 2017 at 9:03:45 pm

Latest Report: Jul 23, 2017 at 8:00 pm


Visibility: 10 mi

Pressure: 29.65 "Hg

Humidity: 49%

Dew Point: 72 °F

Location of HefeiLocation

Past Weather in Hefei — Graph

°F

Hefei Temperature Yesterday

Maximum temperature yesterday: 102 °F (at 3:00 pm)
Minimum temperature yesterday: 81 °F (at 5:00 am)
Average temperature yesterday: 92 °F

High & Low Weather Summary for the Past Weeks

 TemperatureHumidityPressure
High102 °F (Jul 22, 3:00 pm)100% (Jul 9, 6:00 am)29.83 "Hg (Jul 9, 6:00 am)
Low73 °F (Jul 9, 5:00 am)37% (Jul 22, 3:00 pm)29.53 "Hg (Jul 9, 5:00 pm)
Average87 °F74%29.70 "Hg
* Reported Jul 8 8:00 pm — Jul 23 8:00 pm, Hefei. Weather by CustomWeather, © 2017

Note: Actual official high and low records may vary slightly from our data, if they occured in-between our weather recording intervals... More about our weather records

Advertising

Hefei Weather History for the Previous 24 Hours

Scroll right to see more
 ConditionsComfort  
Time TempWeatherWind HumidityBarometerVisibility
8:00 pm
Sun, Jul 23
93 °FClear.6 mph49%29.65 "Hg10 mi
7:00 pm97 °FSunny.8 mph44%29.62 "Hg10 mi
6:00 pm100 °FSunny.10 mph40%29.62 "Hg10 mi
5:00 pm102 °FPassing clouds.3 mph37%29.62 "HgN/A
4:00 pm102 °FPassing clouds.6 mph37%29.65 "HgN/A
3:00 pm102 °FPassing clouds.8 mph37%29.68 "HgN/A
2:00 pm102 °FPassing clouds.3 mph37%29.68 "HgN/A
1:00 pm100 °FPassing clouds.6 mph40%29.71 "HgN/A
12:00 pm100 °FPassing clouds.6 mph40%29.71 "HgN/A
11:00 am99 °FSunny.1 mph44%29.74 "Hg10 mi
10:00 am97 °FPassing clouds.3 mph53%29.74 "HgN/A
9:00 am93 °FPassing clouds.3 mph59%29.74 "HgN/A
8:00 am91 °FPassing clouds.3 mph67%29.74 "HgN/A
7:00 am88 °FSunny.6 mph75%29.74 "Hg10 mi
6:00 am84 °FSunny.3 mph84%29.74 "Hg10 mi
5:00 am84 °FClear.6 mph84%29.71 "Hg10 mi
4:00 am84 °FClear.6 mph84%29.71 "Hg10 mi
3:00 am84 °FClear.3 mph84%29.71 "Hg10 mi
2:00 am86 °FClear.6 mph79%29.71 "Hg10 mi
1:00 am88 °FClear.3 mph75%29.74 "Hg10 mi
12:00 am88 °FClear.3 mph75%29.74 "Hg10 mi
11:00 pm
Sat, Jul 22
90 °FClear.6 mph67%29.77 "Hg10 mi
10:00 pm90 °FClear.3 mph63%29.77 "Hg10 mi
9:00 pm91 °FClear.6 mph59%29.74 "Hg10 mi
Weather by CustomWeather, © 2017

See weather overviewHow to use our weather pages